Enterprise, AL

7:57 AM CST on December 07, 2016 (GMT -0600)
Fort Rucker / Ozark

Weather History for KLOR - September, 2012

Change the Weather History Date:

Wednesday, September 5, 2012

  Actual Average (KOZR) Record (KOZR)
Temperature  
Mean Temperature 78 °F -  
Max Temperature 84 °F 85 °F 93 °F (1998)
Min Temperature 73 °F 66 °F 64 °F (2010)
Cooling Degree Days 14    
Growing Degree Days 28 (Base 50)    
Moisture  
Dew Point 73 °F    
Average Humidity 88    
Maximum Humidity 94    
Minimum Humidity 69    
Precipitation  
Precipitation 0.13 in - - ()
Sea Level Pressure  
Sea Level Pressure 29.88 in    
Wind  
Wind Speed 4 mph (South)    
Max Wind Speed 14 mph    
Max Gust Speed 18 mph    
Visibility 8 miles    
Events Rain    
Averages and records for this station are not official NWS values.
T = Trace of Precipitation, MM = Missing Value Source: NWS Daily Summary

Daily Weather History Graph

Daily Weather History Graph

Search for Another Location

Airport or City:

Trip Planner

Search our weather history database for the weather conditions in past years. The results will help you decide how hot, cold, wet, or windy it might be!

Date:

Astronomy

Sep. 05, 2012 Rise Set
Actual Time 6:21 AM CDT 7:00 PM CDT
Civil Twilight 5:56 AM CDT 7:25 PM CDT
Nautical Twilight 5:28 AM CDT 7:54 PM CDT
Astronomical Twilight 4:58 AM CDT 8:23 PM CDT
Moon 9:54 PM CDT (9/5) 11:01 AM CDT (9/5)
Length of Visible Light 13h 28m
Length of Day
12h 39m
Waning Gibbous, 76% of the Moon is Illuminated
Sep 5
Waning Gibbous
Sep 8
Last Quarter
Sep 15
New
Sep 22
First Quarter
Sep 29
Full

Hourly Weather History & Observations

Time (CDT) Temp. Heat Index Dew Point Humidity Pressure Visibility Wind Dir Wind Speed Gust Speed Precip Events Conditions
12:53 AM 75.0 °F - 73.0 °F 94% 29.86 in 5.0 mi SE 3.5 mph - 0.04 in Rain Light Rain
1:53 AM 75.0 °F - 73.0 °F 94% 29.86 in 7.0 mi SSE 5.8 mph - 0.00 in   Overcast
2:17 AM 75.2 °F - 73.4 °F 94% 29.87 in 6.0 mi South 5.8 mph - N/A   Overcast
2:30 AM 75.2 °F - 73.4 °F 94% 29.87 in 6.0 mi South 5.8 mph - 0.03 in Rain Light Rain
2:53 AM 75.0 °F - 73.0 °F 94% 29.86 in 7.0 mi South 5.8 mph - 0.03 in   Overcast
3:53 AM 75.0 °F - 72.0 °F 90% 29.85 in 10.0 mi South 8.1 mph - 0.00 in   Overcast
4:53 AM 73.9 °F - 72.0 °F 93% 29.85 in 10.0 mi Calm Calm - N/A   Overcast
5:53 AM 73.9 °F - 72.0 °F 93% 29.86 in 10.0 mi Calm Calm - N/A   Overcast
6:53 AM 73.9 °F - 72.0 °F 93% 29.88 in 10.0 mi Calm Calm - N/A   Overcast
7:53 AM 73.9 °F - 72.0 °F 93% 29.88 in 6.0 mi Calm Calm - N/A   Overcast
8:17 AM 73.4 °F - 71.6 °F 94% 29.89 in 10.0 mi ESE 4.6 mph - 0.00 in   Overcast
8:33 AM 73.4 °F - 71.6 °F 94% 29.89 in 2.5 mi Variable 3.5 mph - 0.01 in Rain Light Rain
8:43 AM 75.2 °F - 71.6 °F 89% 29.89 in 6.0 mi Calm Calm - 0.01 in   Overcast
8:53 AM 75.0 °F - 72.0 °F 90% 29.89 in 9.0 mi ESE 4.6 mph - 0.01 in   Overcast
9:53 AM 79.0 °F - 73.0 °F 82% 29.90 in 10.0 mi Variable 4.6 mph - N/A   Overcast
10:16 AM 78.8 °F - 73.4 °F 83% 29.91 in 10.0 mi Variable 4.6 mph - N/A   Overcast
10:53 AM 79.0 °F - 73.9 °F 84% 29.90 in 10.0 mi Variable 3.5 mph - N/A   Overcast
11:07 AM 78.8 °F - 73.4 °F 83% 29.92 in 2.5 mi South 5.8 mph - 0.00 in Rain Light Rain
11:15 AM 77.0 °F - 73.4 °F 89% 29.91 in 0.8 mi Calm Calm - 0.01 in Rain Light Rain
11:20 AM 77.0 °F - 75.2 °F 94% 29.91 in 1.0 mi Calm Calm - 0.02 in Rain Light Rain
11:26 AM 77.0 °F - 75.2 °F 94% 29.91 in 3.0 mi ESE 3.5 mph - 0.02 in Rain Light Rain
11:34 AM 78.8 °F - 75.2 °F 89% 29.90 in 10.0 mi Calm Calm - 0.02 in   Overcast
11:53 AM 80.1 °F 85.1 °F 75.0 °F 85% 29.89 in 10.0 mi Calm Calm - 0.02 in   Overcast
12:53 PM 81.0 °F 85.8 °F 73.0 °F 77% 29.88 in 10.0 mi SW 8.1 mph - N/A   Overcast
1:53 PM 84.0 °F 90.2 °F 73.0 °F 69% 29.87 in 10.0 mi WSW 8.1 mph - N/A   Mostly Cloudy
2:08 PM 80.6 °F 85.4 °F 73.4 °F 79% 29.88 in 9.0 mi SSW 13.8 mph 18.4 mph 0.01 in Rain Light Rain
2:19 PM 78.8 °F - 73.4 °F 83% 29.88 in 8.0 mi SSW 10.4 mph - 0.01 in Rain Light Rain
2:53 PM 78.1 °F - 75.0 °F 90% 29.88 in 7.0 mi SE 3.5 mph - 0.02 in Rain Light Rain
3:41 PM 78.8 °F - 75.2 °F 89% 29.88 in 10.0 mi Calm Calm - 0.01 in   Overcast
3:53 PM 79.0 °F - 75.9 °F 90% 29.87 in 10.0 mi Calm Calm - 0.01 in   Mostly Cloudy
4:29 PM 80.6 °F 86.2 °F 75.2 °F 84% 29.87 in 10.0 mi Calm Calm - N/A   Mostly Cloudy
4:53 PM 81.0 °F 86.2 °F 73.9 °F 79% 29.86 in 10.0 mi South 3.5 mph - N/A   Mostly Cloudy
5:53 PM 82.0 °F 87.9 °F 73.9 °F 76% 29.86 in 10.0 mi Variable 5.8 mph - N/A   Mostly Cloudy
6:06 PM 80.6 °F 85.4 °F 73.4 °F 79% 29.87 in 10.0 mi South 4.6 mph - N/A   Scattered Clouds
6:15 PM 80.6 °F 85.4 °F 73.4 °F 79% 29.87 in 10.0 mi SSE 5.8 mph - N/A   Mostly Cloudy
6:24 PM 80.6 °F 85.4 °F 73.4 °F 79% 29.87 in 10.0 mi South 5.8 mph - N/A   Scattered Clouds
6:53 PM 79.0 °F - 73.9 °F 84% 29.86 in 10.0 mi Calm Calm - N/A   Mostly Cloudy
7:53 PM 77.0 °F - 73.0 °F 88% 29.87 in 10.0 mi South 4.6 mph - N/A   Clear
8:53 PM 75.9 °F - 73.0 °F 91% 29.88 in 10.0 mi South 5.8 mph - N/A   Clear
9:53 PM 75.9 °F - 73.0 °F 91% 29.90 in 10.0 mi South 3.5 mph - N/A   Clear
10:53 PM 75.0 °F - 73.0 °F 94% 29.91 in 10.0 mi Calm Calm - N/A   Clear
11:53 PM 73.9 °F - 72.0 °F 93% 29.92 in 7.0 mi Calm Calm - N/A   Clear